Simultaneous Nadir Overpasses (SNOs) Predictions

Prediction of SNOs between GOES-14 and NOAA-20 Satellite Orbit:

Table of predicted SNOs for the next 14.0 days since TLE Epoch: 2/8/2020
Index Date Time (GOES-14) GOES-14 Lat,Lon NOAA-20 Lat,Lon Distance(km) Time Diff (sec)
1 02/08/2020 08:20:30 0.04,-104.28 -0.12,-103.54 83.72 80
2 02/10/2020 20:23:43 -0.04,-104.04 -0.08,-104.31 30.44 80
3 02/11/2020 20:02:18 -0.04,-104.04 0.91, -99.77 485.59 80
4 02/13/2020 08:24:08 0.04,-104.27 0.23,-105.05 89.88 80
5 02/14/2020 08:08:04 0.04,-104.27 -0.82,-100.53 426.57 80
6 02/15/2020 20:30:00 -0.04,-104.04 -0.42,-105.82 202.74 80
7 02/16/2020 20:08:36 -0.05,-104.03 0.58,-101.29 313.20 80
8 02/18/2020 08:30:25 0.05,-104.26 0.57,-106.57 263.12 80
9 02/19/2020 08:14:21 0.06,-104.26 -0.42,-102.03 253.43 80
10 02/20/2020 20:36:17 -0.06,-104.04 -0.81,-107.32 374.63 80
11 02/21/2020 20:14:54 -0.06,-104.04 0.24,-102.80 141.38 80




NCC Satellite Simultaneous Nadir Overpasses (SNOs) Prediction Service
